GW1111 Weather Reports


time (UTC)temp
C
wind
direction
speed
KPH
gust
KPH
rain 1hr
cm
rain 24hr
cm
rain mn
cm
humidity
%
barometer
mb
20260506133625 12 315 0.0 0.0 0.00 0.00 0.00 69 1012.1
20260506132624 12 355 0.0 0.0 0.00 0.00 0.00 71 1012.2
20260506131626 12 13 0.0 0.0 0.00 0.00 0.00 71 1012.1
20260506130634 12 305 0.0 0.0 0.00 0.00 0.00 73 1012.1
20260506125623 12 309 0.0 0.0 0.00 0.00 0.00 74 1012.1
20260506124621 11 22 0.0 0.0 0.00 0.00 0.00 73 1012.1
20260506123621 11 271 0.0 0.0 0.00 0.00 0.00 73 1012.0
20260506122622 11 293 0.0 0.0 0.00 0.00 0.00 73 1012.0
20260506121623 12 315 0.0 0.0 0.00 0.00 0.00 74 1012.0
20260506120624 11 311 0.0 0.0 0.00 0.00 0.00 73 1012.0
20260506115619 12 316 0.0 0.0 0.00 0.00 0.00 71 1011.8
20260506114617 12 74 0.0 0.0 0.00 0.00 0.00 72 1011.9
20260506113620 12 265 0.0 0.0 0.00 0.00 0.00 75 1012.0
20260506112620 12 300 0.0 0.0 0.00 0.00 0.00 74 1011.9
20260506111618 12 339 0.0 0.0 0.00 0.00 0.00 74 1012.0
20260506110617 12 26 0.0 0.0 0.00 0.00 0.00 76 1011.9
20260506105617 12 294 0.0 0.0 0.00 0.00 0.00 75 1011.9
20260506104613 11 292 0.0 0.0 0.00 0.00 0.00 75 1011.9
20260506103613 11 20 0.0 0.0 0.00 0.00 0.00 74 1012.0
20260506102613 11 309 0.0 0.0 0.00 0.00 0.00 75 1011.9
20260506102059 11 330 0.0 0.0 0.00 0.00 0.00 77 1011.8
20260506101535 11 323 0.0 0.0 0.00 0.00 0.00 76 1011.8
20260506095618 11 274 0.0 0.0 0.00 0.00 0.00 77 1011.8
20260506094616 11 269 0.0 0.0 0.00 0.00 0.00 77 1011.6
20260506093614 11 197 0.0 0.0 0.00 0.00 0.00 75 1011.7
20260506092613 11 66 0.0 0.0 0.00 0.00 0.00 74 1011.5
20260506092533 11 296 0.0 0.0 0.00 0.00 0.00 75 1011.5
20260506090612 11 319 0.0 0.0 0.00 0.00 0.00 78 1011.4
20260506085613 11 290 0.0 0.0 0.00 0.00 0.00 77 1011.2
20260506084615 11 355 0.0 0.0 0.00 0.00 0.00 74 1011.1
20260506083616 12 283 0.0 0.0 0.00 0.00 0.00 76 1011.1
20260506082615 11 122 0.0 0.0 0.00 0.00 0.00 73 1011.0
20260506081614 12 355 0.0 0.0 0.00 0.00 0.00 76 1010.8
20260506080614 11 118 0.0 0.0 0.00 0.00 0.00 75 1011.0
20260506072611 11 90 0.0 0.0 0.00 0.00 0.00 79 1010.8
20260506071612 11 74 0.0 0.0 0.00 0.00 0.00 79 1010.7
20260506070611 10 227 0.0 0.0 0.00 0.00 0.00 80 1010.6
20260506061610 10 338 0.0 0.0 0.00 0.00 0.00 85 1010.5
20260506060611 9 297 0.0 0.0 0.00 0.00 0.00 86 1010.5
20260506050607 8 287 0.0 0.0 0.00 0.00 0.00 89 1010.3
20260506044602 8 279 0.0 0.0 0.00 0.00 0.00 88 1010.1
20260506043602 8 319 0.0 0.0 0.00 0.00 0.00 88 1010.1
20260506042602 8 325 0.0 0.0 0.00 0.00 0.00 88 1010.0
20260506042045 8 290 0.0 0.0 0.00 0.00 0.00 87 1009.9
20260506040603 8 304 0.0 0.0 0.00 0.00 0.00 87 1010.0
20260506035604 8 22 0.0 0.0 0.00 0.00 0.00 87 1010.0
20260506034604 8 276 0.0 0.0 0.00 0.00 0.00 87 1010.0
20260506034045 8 0 0.0 0.0 0.00 0.00 0.00 87 1010.0
20260506032600 8 117 0.0 0.0 0.00 0.00 0.00 86 1010.0
20260506031601 8 291 0.0 0.0 0.00 0.00 0.00 86 1010.0
20260506030602 8 96 0.0 0.0 0.00 0.00 0.00 85 1010.0
20260506025600 8 331 0.0 0.0 0.00 0.00 0.00 85 1010.0
20260506024602 8 314 0.0 0.0 0.00 0.00 0.00 85 1010.0
20260506023601 8 295 0.0 0.0 0.00 0.00 0.00 85 1010.0
20260506022601 8 16 0.0 0.0 0.00 0.00 0.00 85 1009.9
20260506022038 8 304 0.0 0.0 0.00 0.00 0.00 85 1009.9
20260506020601 8 207 0.0 0.0 0.00 0.00 0.00 85 1009.9
20260506015601 9 169 0.0 0.0 0.00 0.00 0.00 84 1009.8
20260506014602 9 249 0.0 0.0 0.00 0.00 0.00 84 1010.0
20260506013602 9 236 0.0 0.0 0.00 0.00 0.00 84 1010.0
20260506012600 9 0 0.0 0.0 0.00 0.00 0.00 83 1010.0
20260506011605 9 238 0.0 0.0 0.00 0.00 0.00 83 1009.9
20260506010603 9 32 0.0 0.0 0.00 0.00 0.00 83 1010.0
20260506005600 9 279 0.0 0.0 0.00 0.00 0.00 83 1010.1
20260506004601 9 311 0.0 0.0 0.00 0.00 0.00 83 1010.0
20260506003600 9 316 0.0 0.0 0.00 0.00 0.00 83 1010.1
20260506002602 9 320 0.0 0.0 0.00 0.00 0.00 83 1010.1
20260506001605 9 309 0.0 0.0 0.00 0.00 0.00 83 1010.2
20260506000559 9 78 0.0 0.0 0.00 0.00 0.00 83 1010.2
20260505235600 9 334 0.0 0.0 0.00 0.00 0.00 82 1010.2
20260505234559 9 336 0.0 0.0 0.00 0.00 0.00 82 1010.1
20260505234044 9 344 0.0 0.0 0.00 0.00 0.00 82 1010.2
20260505232558 9 310 0.0 0.0 0.00 0.00 0.00 81 1010.2
20260505231558 9 115 0.0 0.0 0.00 0.00 0.00 81 1010.3
20260505230557 10 183 0.0 0.0 0.00 0.00 0.00 81 1010.2
20260505230537 10 329 0.0 0.0 0.00 0.00 0.00 81 1010.3
20260505224556 10 285 0.0 0.0 0.00 0.00 0.00 81 1010.2
20260505224039 10 287 0.0 0.0 0.00 0.00 0.00 81 1010.2
20260505222557 10 269 0.0 0.0 0.00 0.00 0.00 81 1010.1
20260505221558 10 303 0.0 0.0 0.00 0.00 0.00 81 1010.2
20260505220558 10 333 0.0 0.0 0.00 0.00 0.00 81 1010.2
20260505215554 10 266 0.0 0.0 0.00 0.00 0.00 81 1010.2
20260505214554 10 324 0.0 0.0 0.00 0.00 0.00 80 1010.1
20260505213552 10 230 0.0 0.0 0.00 0.00 0.00 81 1010.2
20260505212550 10 348 0.0 0.0 0.00 0.00 0.00 81 1010.2
20260505211550 10 220 0.0 0.0 0.00 0.00 0.00 82 1010.2
20260505210550 10 311 0.0 0.0 0.00 0.00 0.00 83 1010.0
20260505205550 10 46 0.0 0.0 0.00 0.00 0.00 84 1010.2
20260505205023 10 234 0.0 0.0 0.00 0.00 0.00 84 1010.2
20260505203548 10 314 0.0 0.0 0.00 0.00 0.00 84 1010.1
20260505202551 10 339 0.0 0.0 0.00 0.00 0.00 85 1010.1
20260505201549 10 339 0.0 0.0 0.00 0.00 0.00 85 1010.0
20260505200554 11 355 0.0 0.0 0.00 0.00 0.00 85 1010.0
20260505200028 11 304 0.0 0.0 0.00 0.00 0.00 85 1009.8
20260505194548 11 309 0.0 0.0 0.00 0.00 0.00 85 1009.7
20260505193548 11 305 0.0 0.0 0.00 0.00 0.00 85 1009.5
20260505192546 11 355 0.0 0.0 0.00 0.00 0.00 84 1009.5
20260505191546 11 9 0.0 0.0 0.00 0.00 0.00 84 1009.4
20260505190545 11 268 0.0 0.0 0.00 0.00 0.00 83 1009.4
20260505185548 11 270 0.0 0.0 0.00 0.00 0.00 82 1009.3
20260505184545 11 63 0.0 0.0 0.00 0.00 0.00 82 1009.2
20260505183548 11 265 0.0 0.0 0.00 0.00 0.00 82 1009.2
20260505182534 11 210 0.0 0.0 0.00 0.00 0.00 82 1009.2
20260505181534 11 273 0.0 0.0 0.00 0.00 0.00 82 1009.1
20260505180533 11 325 0.0 0.0 0.00 0.00 0.00 81 1009.2
20260505180022 12 73 0.0 0.0 0.00 0.00 0.00 81 1009.2
20260505175008 12 326 0.0 0.0 0.00 0.00 0.00 80 1009.1
20260505173530 12 355 0.0 0.0 0.00 0.00 0.00 80 1009.1
20260505172531 12 19 0.0 0.0 0.00 0.00 0.00 80 1009.3
20260505171529 12 0 0.0 0.0 0.00 0.00 0.00 80 1009.1
20260505170529 13 272 0.0 0.0 0.00 0.00 0.00 81 1009.2
20260505165529 13 267 0.0 1.6 0.00 0.00 0.00 80 1009.1
20260505164529 13 284 0.0 0.0 0.00 0.00 0.00 79 1009.1
20260505163528 13 95 0.0 0.0 0.00 0.00 0.00 79 1009.0
20260505162529 13 355 0.0 1.6 0.00 0.00 0.00 80 1009.0
20260505161532 13 284 0.0 1.6 0.00 0.00 0.00 80 1008.9
20260505160530 13 180 0.0 0.0 0.00 0.00 0.00 80 1008.9
20260505153019 14 294 0.0 0.0 0.00 0.00 0.00 80 1009.2
20260505151532 14 293 0.0 0.0 0.00 0.00 0.00 80 1009.2
20260505150527 13 229 0.0 0.0 0.00 0.00 0.00 81 1009.3
20260505140527 13 222 0.0 0.0 0.00 0.03 0.00 82 1009.6